This is the latest recevied weather packets stored in our database for station/object DL4NBA-1. If no packets are shown the sender has not sent any weather packets the latest 10 day(s).
| Time | Temp. | Humidity | Pressure | Rain* | Wind** | Luminosity | Snow |
|---|---|---|---|---|---|---|---|
| 1777570745 | 18.33° C | - | - | 0 mm | 4.92 m/s, 91° | - | - |
| 1777570446 | 18.89° C | - | - | 0 mm | 4.92 m/s, 73° | - | - |
| 1777570148 | 17.22° C | - | - | 0 mm | 4.02 m/s, 94° | - | - |
| 1777569846 | 19.44° C | - | - | 0 mm | 4.47 m/s, 41° | - | - |
| 1777569547 | 20° C | - | - | 0 mm | 4.02 m/s, 80° | - | - |
| 1777569248 | 20° C | - | - | 0 mm | 5.36 m/s, 41° | - | - |
| 1777568949 | 20° C | - | - | 0 mm | 4.47 m/s, 63° | - | - |
| 1777568651 | 20° C | - | - | 0 mm | 4.47 m/s, 49° | - | - |
| 1777568349 | 21.11° C | - | - | 0 mm | 4.47 m/s, 48° | - | - |
| 1777568050 | 20° C | - | - | 0 mm | 5.81 m/s, 73° | - | - |
| 1777567751 | 21.11° C | - | - | 0 mm | 4.02 m/s, 68° | - | - |
| 1777567452 | 20.56° C | - | - | 0 mm | 5.36 m/s, 62° | - | - |
| 1777567153 | 22.78° C | - | - | 0 mm | 2.68 m/s, 77° | - | - |
| 1777566852 | 21.11° C | - | - | 0 mm | 4.47 m/s, 73° | - | - |
| 1777566553 | 21.11° C | - | - | 0 mm | 3.58 m/s, 62° | - | - |
| 1777566254 | 20° C | - | - | 0 mm | 4.02 m/s, 55° | - | - |
| 1777565955 | 18.33° C | - | - | 0 mm | 4.47 m/s, 76° | - | - |
| 1777565655 | 17.22° C | - | - | 0 mm | 5.36 m/s, 51° | - | - |
| 1777565353 | 17.22° C | - | - | 0 mm | 6.71 m/s, 63° | - | - |
| 1777565054 | 17.22° C | - | - | 0 mm | 5.81 m/s, 39° | - | - |
| 1777564755 | 16.67° C | - | - | 0 mm | 6.71 m/s, 42° | - | - |
| 1777564456 | 17.22° C | - | - | 0 mm | 5.36 m/s, 41° | - | - |
| 1777564157 | 17.22° C | - | - | 0 mm | 7.6 m/s, 52° | - | - |
| 1777563856 | 17.22° C | - | - | 0 mm | 5.81 m/s, 38° | - | - |
| 1777563557 | 18.33° C | - | - | 0 mm | 6.26 m/s, 69° | - | - |
* Rain latest hour (hover to see other rain measurements)
** Current wind speed in m/s (hover to see current wind gust speed)